EAST Lake Ontario 20NM North Northeast of Rochester, NY (45012)

Conditions for Friday

Daily
Weekly
Monthly
Marine Data Graph

Current Weather/Wave Observations

Air Temperature: 69° F
Humidity: 56
Wind direction (W Dir): (Calm)
Wind Speed (W Spd): 0.0 kts (0.0 mph)
Wind Gust (W Spd): 1.9 kts (2.2 mph)
Atmospheric Pressure (AP): 30.17 in

Updated: 4:00 PM EDT on September 20, 2019

Marine & Boating Location Search

Enter a coastal zip code for marine weather.

General Information

Location: 43.621 North -77.406 West
Buoy Type: 3-meter foam buoy
Buoy Hull: 3DV30
Payload: ARES payload
Owned by: NDBC
Windspeed: Measured by obtained from anemometer
Sea Surface: Measured by Intake
Note: For Great Lakes marine forecasts, select: GREAT LAKES FORECASTS

Weather and Wave Data

Time Temp Humidity Wind Dominant Wave Wind Wave Pressure
  Air
(°F)
Water
(°F)
  Dir Speed
(kts)
Speed
(mph)
Period
(sec)
Height
(ft)
Range
(ft)
Period
(sec)
Height
(ft)
Range
(ft)
Atmo.
(in)
Tend.
(in)
20:00 67 66 71 ESE 9.7 11.2 - - - 30.22 -
20:20 67 66 71 ESE 9.7 11.2 - - - 30.22 -
20:30 67 66 72 ESE 9.7 11.2 - - - 30.22 -
20:40 67 66 72 ESE 9.7 11.2 - - - 30.22 -
21:00 67 66 71 SE 9.7 11.2 - - - 30.22 -
21:10 67 66 72 SE 9.7 11.2 - - - 30.22 -
21:20 67 66 72 SE 7.8 8.9 - - - 30.22 -
21:30 67 66 72 SE 7.8 8.9 - - - 30.21 -
21:50 67 66 67 SE 9.7 11.2 3 0.98 exactly 1.0 3 1.64 0.82 - 2.46 30.21 -
22:20 67 66 63 SE 9.7 11.2 - - - 30.21 -
22:30 67 66 62 SSE 9.7 11.2 - - - 30.21 -
22:40 67 66 61 SSE 9.7 11.2 - - - 30.21 -
22:50 67 66 60 SSE 9.7 11.2 3 0.98 exactly 1.0 3 1.64 0.82 - 2.46 30.21 -
23:00 67 66 61 SSE 9.7 11.2 - - - 30.21 -
23:10 66 66 64 SSE 9.7 11.2 - - - 30.20 -
23:30 66 66 66 SSE 11.7 13.4 - - - 30.20 -
23:40 66 66 66 South 11.7 13.4 - - - 30.20 -
23:50 66 66 69 South 9.7 11.2 3 0.98 exactly 1.0 3 1.64 0.82 - 2.46 30.20 -
00:00 66 66 67 South 11.7 13.4 - - - 30.19 -
00:10 66 66 69 South 9.7 11.2 - - - 30.19 -
00:20 66 66 69 South 9.7 11.2 - - - 30.19 -
00:30 66 66 67 South 9.7 11.2 - - - 30.19 -
00:50 66 66 63 SSW 11.7 13.4 3 0.98 exactly 1.0 3 1.64 0.82 - 2.46 30.19 -
01:00 65 66 68 SSW 9.7 11.2 - - - 30.19 -
01:20 65 66 72 SSW 9.7 11.2 - - - 30.19 -
01:40 66 66 68 SSW 11.7 13.4 - - - 30.19 -
01:50 66 66 66 SSW 11.7 13.4 3 0.98 exactly 1.0 3 1.64 0.82 - 2.46 30.19 -
02:10 65 66 71 SSW 11.7 13.4 - - - 30.18 -
02:30 65 66 68 SSW 11.7 13.4 - - - 30.18 -
02:50 65 66 67 SW 11.7 13.4 3 1.31 exactly 1.3 3 1.64 0.82 - 2.46 30.18 -
03:00 65 66 66 SW 11.7 13.4 - - - 30.18 -
03:10 65
-
67 SW 9.7 11.2 - - - 30.18 -
03:20 65 66 66 SSW 9.7 11.2 - - - 30.18 -
03:30 65 66 66 SSW 9.7 11.2 - - - 30.18 -
03:40 64 66 67 SSW 9.7 11.2 - - - 30.18 -
03:50 64 66 69 SSW 9.7 11.2 3 1.31 exactly 1.3 3 1.64 0.82 - 2.46 30.18 -
04:20 64 66 67 SW 9.7 11.2 - - - 30.19 -
04:30 64 66 68 SW 7.8 8.9 - - - 30.19 -
04:40 64 66 66 SW 9.7 11.2 - - - 30.19 -
04:50 64 66 68 SW 7.8 8.9 3 1.31 exactly 1.3 3 1.64 0.82 - 2.46 30.19 -
05:20 64 66 67 SW 7.8 8.9 - - - 30.20 -
05:40 64 65 66 WSW 7.8 8.9 - - - 30.20 -
05:50 63 65 68 WSW 7.8 8.9 3 0.98 exactly 1.0 3 1.64 0.82 - 2.46 30.20 -
06:00 63 66 70 WSW 5.8 6.7 - - - 30.20 -
06:10 63 65 71 SW 7.8 8.9 - - - 30.21 -
06:20 63 65 71 SW 7.8 8.9 - - - 30.21 -
06:40 63 65 70 SW 7.8 8.9 - - - 30.21 -
06:50 63 66 70 SW 7.8 8.9 3 0.98 exactly 1.0 3 1.64 0.82 - 2.46 30.21 -
07:10 63 66 70 SW 7.8 8.9 - - - 30.22 -
07:20 63 66 70 SSW 5.8 6.7 - - - 30.22 -
07:30 63 66 71 SSW 5.8 6.7 - - - 30.22 -
07:40 63 66 70 SSW 5.8 6.7 - - - 30.22 -
07:50 64 66 68 SSW 5.8 6.7 3 0.98 exactly 1.0 3 1.64 0.82 - 2.46 30.22 -
08:10 64 66 67 SW 5.8 6.7 - - - 30.23 -
08:30 64 66 68 SSW 5.8 6.7 - - - 30.23 -
09:10 64 66 67 SSW 5.8 6.7 - - - 30.24 -
09:20 63 66 71 SSW 5.8 6.7 - - - 30.23 -
09:30 63 66 70 SSW 5.8 6.7 - - - 30.23 -
09:40 63 66 70 SSW 5.8 6.7 - - - 30.23 -
10:10 63 66 72 SSW 7.8 8.9 - - - 30.23 -
10:20 63 66 72 SSW 7.8 8.9 - - - 30.23 -
10:30 63 66 70 SSW 7.8 8.9 - - - 30.23 -
10:40 63 66 70 SSW 5.8 6.7 - - - 30.23 -
10:50 63 66 69 SSW 5.8 6.7 3 0.98 exactly 1.0 3 1.64 0.82 - 2.46 30.23 -
11:00 64 66 67 SSW 5.8 6.7 - - - 30.23 -
11:10 64 66 68 SSW 5.8 6.7 - - - 30.22 -
11:30 64 66 67 SSW 5.8 6.7 - - - 30.22 -
11:40 64 66 68 South 5.8 6.7 - - - 30.22 -
11:50 64 66 67 South 5.8 6.7 0.66 exactly 0.7 - - - 30.22 -
12:10 64 66 67 South 5.8 6.7 - - - 30.22 -
12:20 64 66 67 South 5.8 6.7 - - - 30.21 -
12:30 64 66 68 South 5.8 6.7 - - - 30.21 -
12:40 64 66 67 South 3.9 4.5 - - - 30.21 -
12:50 65 66 64 South 3.9 4.5 0.66 exactly 0.7 - - - 30.21 -
13:10 65 66 63 South 3.9 4.5 - - - 30.20 -
13:20 65 67 64 South 5.8 6.7 - - - 30.20 -
13:40 66 67 59 South 5.8 6.7 - - - 30.19 -
13:50 66 67 58 South 3.9 4.5 0.66 exactly 0.7 - - - 30.19 -
14:10 66 67 59 SSW 3.9 4.5 - - - 30.19 -
14:20 67 67 59 SSW 3.9 4.5 - - - 30.19 -
14:30 67 67 59 SSW 1.9 2.2 - - - 30.19 -
14:40 67 67 59 SSW 1.9 2.2 - - - 30.19 -
14:50 67 67 58 SW 1.9 2.2 0.66 exactly 0.7 - - - 30.18 -
15:10 67 67 59 SW 1.9 2.2 - - - 30.18 -
15:20 68 66 57 SW 1.9 2.2 - - - 30.17 -
15:40 69 66 55 - 0.0 0.0 - - - 30.17 -
15:50 69 66 56 - 0.0 0.0 0.66 exactly 0.7 - - - 30.17 -
16:00 69 66 56 - 0.0 0.0 - - - 30.17 -

Detailed Wave Spectra

Time Water Depth Wave Height Spectral Peak Period Average Wave Period Sampling Interval Wave Record
22:00 459 ft 0.95 ft 2.9 sec 2.6 sec 0.6 sec 2400 sec
04:00 459 ft 1.25 ft 2.9 sec 2.7 sec 0.6 sec 2400 sec
05:00 459 ft 1.25 ft 3.0 sec 2.8 sec 0.6 sec 2400 sec
07:00 459 ft 0.98 ft 3.0 sec 2.8 sec 0.6 sec 2400 sec
08:00 459 ft 0.89 ft 3.1 sec 2.8 sec 0.6 sec 2400 sec
09:00 459 ft 0.82 ft 2.8 sec 0.6 sec 2400 sec
10:00 459 ft 0.95 ft 3.0 sec 2.9 sec 0.6 sec 2400 sec
12:00 459 ft 0.82 ft 2.8 sec 0.6 sec 2400 sec
14:00 459 ft 0.69 ft 2.8 sec 0.6 sec 2400 sec
15:00 459 ft 0.56 ft 2.9 sec 0.6 sec 2400 sec